Location: ?????
(31.8092°N, 35.2590°E)
Time: 19:48:39
(UTC+00:00)

ARIANE 5 R/B - Pass Details

Date: 20 June 2021
Orbit: 620 x 656 km, 98.1° (Epoch: 28 July)

Event Time Altitude Azimuth Distance (km) Brightness Sun altitude
Exits shadow 20:01:04 26° 276° (W) 1,269 4.4 -29.8°
Drops below altitude 10° 20:04:17 10° 321° (NW) 2,048 6.1 -30.1°
Sets 20:06:49 0° 334° (NNW) 2,968 7.2 -30.4°
